{"data":{"norad_id":58828,"intl_designator":"2024-017C","name":"STARLINK-31222","alt_names":[],"object_type":"PAYLOAD","status":"ACTIVE","operator":null,"country":"US","launch_date":"2024-01-24","launch_site_code":"AFWTR","launch_vehicle":null,"mission":null,"orbit_class":"UNKNOWN","rcs_meters":null,"size_class":null,"mass_kg":null,"dimensions":null,"purposes":["comms"],"wikipedia_slug":null,"has_3d_model":false,"image_url":null,"decayed_at":null,"tle_current":{"epoch":"2026-09-20T13:53:21.079680Z","epoch_age_seconds":145649,"freshness":"FRESH","line1":"1 58828U 24017C   26263.57871620  .00000139  00000+0  15253-4 0  9992","line2":"2 58828  53.1602  17.0259 0001209  78.4520 281.6619 15.34389844149929","mean_motion":15.34389844,"eccentricity":0.0001209,"inclination_deg":53.1602,"raan_deg":17.0259,"arg_perigee_deg":78.452,"mean_anomaly_deg":281.6619,"bstar":1.5253e-5,"rev_number":14992,"period_min":93.848379251916,"perigee_km":461.90636491136,"apogee_km":463.5604873804,"semimajor_km":6840.8704261459,"source":"CELESTRAK","updated_at":"2026-09-21T09:00:33.983094Z"}}}